CW3224 Weather Reports


time (UTC)temp
C
wind
direction
speed
KPH
gust
KPH
rain 1hr
cm
rain 24hr
cm
rain mn
cm
humidity
%
barometer
mb
20260904083503 17 185 0.0 0.0 0.00 0.25 0.03 93 1009.2
20260904082504 17 185 0.0 0.0 0.00 0.25 0.03 93 1009.3
20260904081503 18 185 0.0 0.0 0.00 0.25 0.03 94 1009.3
20260904080943 18 185 0.0 0.0 0.00 0.25 0.03 94 1009.7
20260904075938 18 185 0.0 0.0 0.00 0.30 0.03 94 1009.6
20260904074504 18 185 0.0 0.0 0.00 0.43 0.03 94 1009.6
20260904073504 18 185 0.0 0.0 0.00 0.43 0.03 93 1009.6
20260904072504 18 185 0.0 0.0 0.00 0.43 0.03 93 1009.7
20260904071454 18 185 0.0 0.0 0.00 0.43 0.03 93 1009.6
20260904070453 18 185 0.0 0.0 0.00 0.43 0.03 94 1009.6
20260904065453 18 185 0.0 0.0 0.03 0.43 0.03 93 1009.6
20260904064453 18 185 0.0 0.0 0.03 0.43 0.03 93 1009.7
20260904063453 18 185 0.0 0.0 0.03 0.43 0.03 93 1009.7
20260904062453 18 185 0.0 0.0 0.03 0.43 0.03 93 1009.8
20260904061452 18 185 0.0 0.0 0.03 0.43 0.03 93 1010.1
20260904060446 18 185 0.0 0.0 0.03 0.43 0.03 93 1010.1
20260904055445 18 185 0.0 0.0 0.00 0.41 0.00 93 1010.3
20260904054445 18 185 0.0 0.0 0.00 0.41 0.00 93 1010.6
20260904053446 18 185 0.0 0.0 0.00 0.41 0.00 93 1010.6
20260904052445 18 185 0.0 0.0 0.00 0.41 0.00 93 1010.7
20260904051442 18 185 0.0 0.0 0.00 0.41 0.00 93 1010.7
20260904050442 18 185 0.0 0.0 0.00 0.41 0.00 93 1010.7
20260904045441 18 187 0.0 0.0 0.00 0.41 0.00 93 1010.7
20260904044442 18 187 0.0 0.0 0.00 0.41 0.00 92 1010.7
20260904043435 18 187 0.0 0.0 0.00 0.41 0.00 92 1010.7
20260904042436 18 191 0.0 0.0 0.00 0.41 0.00 92 1010.8
20260904041435 18 191 0.0 0.0 0.00 0.41 0.00 92 1010.8
20260904040434 18 191 0.0 0.0 0.00 0.41 0.00 92 1010.8
20260904035904 18 191 0.0 0.0 0.00 0.41 0.41 91 1010.8
20260904034420 18 191 0.0 0.0 0.00 0.41 0.41 91 1011.1
20260904033420 18 191 0.0 0.0 0.00 0.41 0.41 92 1011.1
20260904032900 18 191 0.0 0.0 0.00 0.41 0.41 92 1011.0
20260904031420 18 191 0.0 0.0 0.00 0.41 0.41 91 1011.0
20260904030407 18 191 0.0 0.0 0.00 0.41 0.41 91 1011.0
20260904025848 18 191 0.0 0.0 0.00 0.41 0.41 91 1010.9
20260904024408 19 191 0.0 0.0 0.00 0.41 0.41 91 1011.2
20260904023407 19 191 0.0 0.0 0.00 0.41 0.41 91 1011.2
20260904022356 19 191 0.0 0.0 0.00 0.41 0.41 91 1011.2
20260904021354 19 191 0.0 0.0 0.00 0.41 0.41 91 1011.3
20260904020354 19 191 0.0 0.0 0.00 0.41 0.41 91 1011.3
20260904020307 19 191 0.0 0.0 0.00 0.41 0.41 91 1011.5
20260904014351 20 191 0.0 0.0 0.00 0.41 0.41 91 1011.4
20260904013350 20 191 0.0 0.0 0.00 0.41 0.41 90 1011.4
20260904012351 20 191 0.0 0.0 0.00 0.41 0.41 90 1011.6
20260904011350 20 191 0.0 0.0 0.00 0.41 0.41 90 1011.5
20260904010351 20 191 0.0 0.0 0.00 0.41 0.41 90 1011.5
20260904005348 20 191 0.0 0.0 0.00 0.41 0.41 90 1011.3
20260904004823 20 191 0.0 0.0 0.00 0.41 0.41 90 1011.3
20260904003347 20 191 0.0 0.0 0.00 0.41 0.41 89 1011.3
20260904002348 20 191 0.0 0.0 0.00 0.41 0.41 89 1010.9
20260904001348 21 191 0.0 0.0 0.00 0.41 0.41 89 1010.6
20260904000349 21 191 0.0 0.0 0.00 0.41 0.41 89 1010.6
20260903235340 21 191 0.0 0.0 0.00 0.41 0.41 89 1010.8
20260903234340 21 191 0.0 0.0 0.00 0.41 0.41 88 1010.6
20260903233340 21 191 0.0 0.0 0.00 0.41 0.41 88 1010.6
20260903232340 21 191 0.0 0.0 0.00 0.41 0.41 87 1010.7
20260903231340 22 191 0.0 0.0 0.00 0.41 0.41 87 1010.9
20260903230338 22 191 0.0 0.0 0.00 0.41 0.41 87 1010.9
20260903225338 22 191 0.0 0.0 0.00 0.41 0.41 87 1010.7
20260903224337 22 191 0.0 0.0 0.00 0.41 0.41 87 1010.7
20260903223337 22 191 0.0 0.0 0.00 0.41 0.41 86 1010.7
20260903222339 22 191 0.0 0.0 0.00 0.41 0.41 86 1011.3
20260903221336 22 191 0.0 0.0 0.00 0.41 0.41 86 1011.3
20260903220337 22 191 0.0 0.0 0.00 0.41 0.41 85 1011.3
20260903215820 22 191 0.0 0.0 0.00 0.41 0.41 85 1011.3
20260903214336 22 191 0.0 0.0 0.00 0.41 0.41 85 1011.1
20260903213336 23 191 0.0 0.0 0.00 0.41 0.41 84 1011.1
20260903212336 23 191 0.0 0.0 0.00 0.41 0.41 84 1011.3
20260903211327 23 191 0.0 0.0 0.00 0.41 0.41 84 1011.2
20260903210326 23 190 0.0 0.0 0.00 0.41 0.41 85 1011.2
20260903205326 23 191 0.0 0.0 0.00 0.41 0.41 84 1011.2
20260903204325 23 191 0.0 0.0 0.00 0.41 0.41 84 1011.3
20260903203804 23 129 0.0 0.0 0.00 0.41 0.41 84 1011.3
20260903202323 23 129 0.0 0.0 0.00 0.41 0.41 84 1011.3
20260903201325 23 129 0.0 0.0 0.00 0.41 0.41 83 1011.3
20260903200806 23 129 0.0 0.0 0.00 0.41 0.41 83 1011.3
20260903195324 22 94 0.0 0.0 0.00 0.41 0.41 84 1011.6
20260903194323 22 155 0.0 0.0 0.00 0.41 0.41 84 1011.8
20260903193325 22 155 0.0 0.0 0.00 0.41 0.41 84 1011.8
20260903192316 22 156 0.0 0.0 0.00 0.41 0.41 84 1011.9
20260903191315 22 161 0.0 0.0 0.00 0.41 0.41 85 1011.9
20260903190315 22 139 0.0 0.0 0.00 0.41 0.41 85 1011.9
20260903185746 22 85 0.0 0.0 0.00 0.41 0.41 84 1012.3
20260903184753 22 59 1.6 4.8 0.00 0.41 0.41 85 1012.3
20260903183311 21 75 0.0 4.8 0.00 0.41 0.41 85 1012.3
20260903182309 21 180 0.0 3.2 0.00 0.41 0.41 85 1012.4
20260903181311 21 152 1.6 4.8 0.00 0.41 0.41 86 1012.5
20260903180309 21 112 1.6 3.2 0.00 0.41 0.41 87 1012.5
20260903175310 20 59 0.0 4.8 0.00 0.41 0.41 87 1012.8
20260903174755 20 59 0.0 4.8 0.00 0.41 0.41 87 1012.8
20260903173311 20 50 0.0 4.8 0.00 0.41 0.41 88 1012.8
20260903172750 20 69 0.0 3.2 0.00 0.41 0.41 90 1012.9
20260903171752 20 71 0.0 3.2 0.00 0.41 0.41 90 1012.7
20260903170310 20 68 0.0 3.2 0.00 0.41 0.41 91 1012.7
20260903165259 20 68 0.0 1.6 0.00 0.41 0.41 92 1012.8
20260903164300 19 68 0.0 1.6 0.00 0.41 0.41 92 1012.8
20260903163300 19 69 0.0 3.2 0.00 0.41 0.41 93 1012.8
20260903162258 19 356 0.0 1.6 0.00 0.41 0.41 93 1012.9
20260903161251 18 301 0.0 3.2 0.00 0.41 0.41 93 1012.9
20260903160729 18 301 0.0 4.8 0.00 0.41 0.41 93 1012.9
20260903155252 18 301 0.0 3.2 0.00 0.41 0.41 93 1013.0
20260903154250 18 301 0.0 1.6 0.00 0.41 0.41 93 1013.3
20260903153235 18 301 0.0 0.0 0.00 0.41 0.41 94 1013.3
20260903152235 18 142 0.0 0.0 0.00 0.41 0.41 94 1013.6
20260903151236 18 143 0.0 0.0 0.00 0.41 0.41 94 1013.5
20260903150235 18 143 0.0 0.0 0.00 0.41 0.41 94 1013.5
20260903145235 17 301 0.0 0.0 0.00 0.41 0.41 94 1013.7
20260903144235 17 301 0.0 0.0 0.00 0.41 0.41 94 1013.8
20260903143728 17 301 0.0 0.0 0.00 0.41 0.41 93 1013.8
20260903142235 17 301 0.0 0.0 0.00 0.41 0.41 94 1013.8
20260903141237 17 301 0.0 0.0 0.00 0.41 0.41 94 1014.0
20260903140219 17 142 0.0 0.0 0.00 0.41 0.41 94 1014.0
20260903135219 17 142 0.0 0.0 0.00 0.41 0.41 94 1014.3
20260903134219 16 301 0.0 0.0 0.00 0.41 0.41 94 1014.1
20260903133219 16 301 0.0 0.0 0.00 0.41 0.41 93 1014.1
20260903132220 16 301 0.0 0.0 0.00 0.41 0.41 93 1014.0
20260903131210 16 301 0.0 0.0 0.00 0.41 0.41 93 1014.2
20260903130209 16 301 0.0 0.0 0.00 0.41 0.41 93 1014.2
20260903125209 16 301 0.0 0.0 0.00 0.41 0.41 93 1014.3
20260903124208 16 301 0.0 0.0 0.00 0.41 0.41 93 1014.5
20260903123207 16 301 0.0 0.0 0.00 0.41 0.41 93 1014.5
20260903122208 16 301 0.0 0.0 0.00 0.41 0.41 93 1014.6
20260903121153 16 301 0.0 0.0 0.00 0.41 0.41 93 1014.6
20260903120152 16 301 0.0 0.0 0.00 0.41 0.41 93 1014.6
20260903115154 16 301 0.0 1.6 0.00 0.41 0.41 93 1014.9
20260903114153 16 301 0.0 1.6 0.00 0.41 0.41 93 1014.9
20260903113634 16 301 0.0 0.0 0.00 0.41 0.41 93 1014.9
20260903112153 16 301 0.0 0.0 0.00 0.41 0.41 93 1014.9
20260903111152 16 301 0.0 0.0 0.00 0.41 0.41 93 1014.9
20260903110152 16 143 0.0 0.0 0.00 0.41 0.41 92 1014.9
20260903105152 16 143 0.0 0.0 0.00 0.41 0.41 92 1014.9
20260903104150 16 143 0.0 0.0 0.03 0.41 0.41 92 1014.9
20260903103154 16 143 0.0 0.0 0.05 0.41 0.41 92 1014.9
20260903102151 16 143 0.0 0.0 0.05 0.41 0.41 92 1014.9
20260903101617 16 143 0.0 0.0 0.13 0.41 0.41 92 1014.8
20260903100138 16 143 0.0 0.0 0.15 0.41 0.41 92 1014.8
20260903095137 16 143 0.0 1.6 0.18 0.41 0.41 92 1014.9
20260903094611 16 143 0.0 3.2 0.20 0.38 0.38 91 1015.0
20260903093136 16 143 0.0 0.0 0.18 0.36 0.36 91 1015.0
20260903092138 16 143 0.0 0.0 0.18 0.36 0.36 91 1015.5
20260903091131 16 143 0.0 0.0 0.10 0.28 0.28 91 1015.3
20260903090131 16 143 0.0 3.2 0.08 0.25 0.25 91 1015.3
20260903085130 16 176 0.0 4.8 0.08 0.18 0.23 90 1015.4
20260903084130 16 202 0.0 3.2 0.18 0.18 0.18 90 1015.4